This demonstration page uses our WeatherBlox Daily Observations layout. Learn more.

Left ArrowRight Arrow

Hourly Observations for February 7, 2020

Temp ( °F °C ) Dew Point ( °F °C ) Humidity (%) Winds ( mph kmh ) Pressure ( in mb ) Visibility ( mi km ) Precip ( " mm )
12:53 am 00:53 Cloudy 29 -1.7 24 -4.4 82 82 WSW 8 13 29.86 1011 10 16 0.00 0.00
1:53 am 01:53 Cloudy 28 -2.2 24 -4.4 85 85 WSW 7 11 29.85 1011 10 16 0.00 0.00
2:53 am 02:53 Cloudy 28 -2.2 24 -4.4 85 85 SW 7 11 29.85 1011 10 16 0.00 0.00
3:53 am 03:53 Cloudy 28 -2.2 24 -4.4 85 85 WNW 3 6 29.87 1011 10 16 0.00 0.00
4:53 am 04:53 Cloudy 27 -2.8 25 -3.9 92 92 SW 5 7 29.88 1012 10 16 0.00 0.00
5:53 am 05:53 Cloudy 27 -2.8 24 -4.4 89 89 SW 3 6 29.91 1013 10 16 0.00 0.00
6:53 am 06:53 Cloudy 28 -2.2 24 -4.4 85 85 N 8 13 29.93 1014 10 16 0.00 0.00
7:53 am 07:53 Cloudy with Light Snow 29 -1.7 24 -4.4 82 82 N 5 7 29.95 1014 6 10 0.00 0.00
8:12 am 08:12 Cloudy 29 -1.7 25 -3.9 85 85 W 5 7 29.99 1016 8 13 0.00 0.00
8:19 am 08:19 Cloudy 29 -1.7 25 -3.9 85 85 WSW 3 6 29.99 1016 10 16 0.00 0.00
8:53 am 08:53 Cloudy 29 -1.7 25 -3.9 85 85 SW 5 7 29.96 1015 10 16 0.00 0.00
9:53 am 09:53 Cloudy 31 -0.6 25 -3.9 79 79 W 5 7 29.98 1015 10 16 0.00 0.00
10:53 am 10:53 Mostly Cloudy 33 0.6 25 -3.9 72 72 SW 6 9 29.98 1015 10 16 0.00 0.00
11:53 am 11:53 Mostly Cloudy 36 2.2 26 -3.3 67 67 WSW 13 20 29.98 1015 10 16 0.00 0.00
12:11 pm 12:11 Cloudy 35 1.7 24 -4.4 64 64 W 9 15 29.99 1016 10 16 0.00 0.00
12:53 pm 12:53 Mostly Sunny 36 2.2 23 -5 59 59 W 12 19 29.97 1015 10 16 0.00 0.00
1:53 pm 13:53 Mostly Cloudy 37 2.8 24 -4.4 59 59 WSW 12 19 29.97 1015 10 16 0.00 0.00
2:53 pm 14:53 Mostly Cloudy 33 0.6 26 -3.3 75 75 WSW 14 22 29.98 1015 10 16 0.00 0.00
3:53 pm 15:53 Sunny 31 -0.6 28 -2.2 89 89 SSW 10 17 29.99 1016 10 16 0.00 0.00
4:53 pm 16:53 Mostly Cloudy 30 -1.1 26 -3.3 85 85 S 6 9 29.98 1015 10 16 0.00 0.00
5:53 pm 17:53 Mostly Cloudy 31 -0.6 24 -4.4 76 76 Calm 29.98 1015 10 16 0.00 0.00
6:53 pm 18:53 Cloudy 29 -1.7 25 -3.9 85 85 S 5 7 29.96 1015 10 16 0.00 0.00
7:53 pm 19:53 Mostly Cloudy 26 -3.3 21 -6.1 81 81 SSW 5 7 29.94 1014 10 16 0.00 0.00
8:53 pm 20:53 Clear 26 -3.3 20 -6.7 78 78 SSE 3 6 29.90 1013 10 16 0.00 0.00
9:53 pm 21:53 Clear 26 -3.3 21 -6.1 81 81 NE 3 6 29.87 1012 10 16 0.00 0.00
10:53 pm 22:53 Mostly Cloudy 27 -2.8 21 -6.1 78 78 E 5 7 29.85 1011 10 16 0.00 0.00
11:53 pm 23:53 Cloudy 27 -2.8 21 -6.1 78 78 ENE 8 13 29.80 1009 10 16 0.00 0.00

Powered by AerisWeather